Find Local Weather

World > North America > United States > Washington

Cle Elum, Washington Regional Weather

Lat: 47.19N, Lon: 120.93W
Wx Zone: WAZ520
Feedback
Expires:201808142000;;060957
ASUS46 KSEW 141910
RWRWA 

WASHINGTON REGIONAL WEATHER ROUNDUP
NATIONAL WEATHER SERVICE SEATTLE WA
1200 PM PDT TUE AUG 14 2018

NOTE:"FAIR" INDICATES FEW OR NO CLOUDS BELOW 12,000 FEET WITH NO 
SIGNIFICANT WEATHER AND/OR OBSTRUCTIONS TO VISIBILITY.


WAZ026-027-041>044-520-521-142000-
EAST SLOPES
  
CITY           SKY/WX    TMP DP  RH WIND       PRES   REMARKS
OMAK           SUNNY     80  50  34 N10       29.97F HAZE             
WENATCHEE      HAZE      76  47  35 CALM      29.97F VSB 1/2          
ELLENSBURG     CLOUDY    75  49  39 E6        30.00F HAZE             
YAKIMA         SUNNY     83  48  29 NW3       29.97F HAZE             
SUNNYSIDE ARPT CLEAR     78  58  50 CALM      29.96F HAZE             
YAKIMA TC        N/A     82  43  24 NW6       29.96F HAZE             
$$


SKY/WX - Weather  TMP - Temperature  DP - Dewpoint  RH - Relative Humidity
WIND - Wind Direction/Speed PRES - Barometric Pressure